Theta_e
308 307 308 308 308 309 309 309 309 310 310 310 310 310 311 311 310 311 310 310 310 310 310 310 309 310 311 312 311 310 309 309 309 310 311 313 314 315 315 313 312 311 311 312 312 312 312 313 313 314 316 318 319 319 318 319 318 319 327 328 325 327 322 319 322 321 321 320 317 316 317 317 317 317 316 316 316 317 316 315 317 315 316 316 316 316 316 317
307 307 308 308 308 308 309 309 309 310 310 310 310 310 310 310 310 310 310 310 310 310 310 310 310 310 311 311 310 309 309 309 309 310 312 315 316 315 315 313 311 312 312 312 312 313 313 314 314 315 316 316 319 319 318 319 317 321 326 324 330 329 317 316 318 316 319 319 316 316 317 316 317 316 315 316 315 316 316 316 316 316 316 316 315 316 315 316
307 308 308 308 308 309 309 309 309 310 310 310 310 310 310 310 310 310 310 310 310 310 310 310 310 311 311 311 310 309 309 309 309 310 312 315 316 314 313 312 312 312 312 312 312 313 314 315 315 315 316 315 318 319 319 320 317 319 323 325 330 324 315 316 316 316 318 317 316 316 316 316 316 316 315 315 315 315 315 316 316 316 316 316 315 315 315 315
308 307 307 308 308 308 309 309 309 310 310 310 310 310 310 310 311 310 310 310 310 310 310 310 310 311 311 311 309 309 309 309 310 310 312 315 314 313 312 312 312 312 312 312 312 314 315 315 315 314 315 315 316 317 318 319 317 317 323 328 324 317 318 318 315 317 317 317 316 316 317 316 316 316 315 314 315 315 314 315 316 316 316 315 315 315 315 314
308 308 308 308 308 308 309 309 309 310 310 310 310 310 310 310 310 310 311 310 310 310 310 310 310 311 311 310 309 309 310 311 313 311 311 314 313 312 312 312 312 312 312 313 312 313 315 315 315 314 314 315 315 316 317 318 318 317 318 321 317 316 320 317 315 317 316 317 317 316 316 316 316 316 316 315 316 317 315 315 316 316 316 316 316 315 315 315
308 308 307 308 308 308 309 309 309 310 310 310 310 310 310 310 310 311 310 310 310 310 310 310 311 311 311 310 309 309 311 312 315 314 312 314 313 312 312 312 313 313 313 312 312 313 315 315 314 314 314 315 316 316 317 317 317 319 316 315 316 317 318 316 316 317 316 317 316 316 316 316 316 316 317 316 316 318 317 317 316 316 317 316 317 316 315 315
309 308 308 308 308 308 309 309 309 309 310 310 310 310 310 310 310 310 310 311 310 310 310 310 311 311 310 310 309 309 311 312 315 315 314 313 312 312 312 312 313 313 313 312 312 313 314 315 315 315 315 315 315 315 316 317 316 319 318 315 316 316 316 316 316 316 316 317 316 316 316 316 317 317 317 316 316 317 317 318 317 317 318 317 317 317 316 316
309 308 308 308 308 308 309 309 309 309 310 310 310 310 310 310 310 311 311 311 310 310 310 310 311 310 310 309 309 309 309 312 314 313 314 313 312 312 312 312 313 312 313 313 313 314 314 315 315 315 315 314 315 316 316 315 314 317 317 315 315 316 315 315 315 315 316 316 316 316 316 316 317 317 316 316 317 316 317 317 317 317 317 317 317 317 317 316
309 308 308 307 308 308 309 309 309 309 310 310 310 310 310 311 310 310 311 310 310 310 310 311 310 310 310 309 310 311 310 312 313 313 313 312 312 312 312 312 313 312 312 314 314 315 315 315 315 315 315 315 315 315 315 315 315 315 316 316 315 315 315 315 315 315 315 316 316 316 316 316 316 316 317 317 317 317 317 316 317 317 316 317 317 316 317 316
308 308 308 307 308 308 308 309 309 309 309 310 310 310 310 310 311 311 310 311 310 310 310 310 310 310 309 309 310 312 314 315 314 314 312 312 312 312 312 312 313 312 312 314 314 316 316 316 317 316 316 316 316 315 316 317 317 316 316 316 315 315 315 315 315 315 315 316 315 317 317 316 315 316 318 318 317 317 317 317 317 317 317 316 316 316 316 316
309 308 308 308 307 308 308 308 309 309 309 310 310 310 311 310 311 310 310 310 310 310 310 310 310 309 309 309 310 312 316 316 315 314 312 312 312 312 312 312 313 312 313 313 314 315 316 316 317 316 316 316 316 316 316 318 317 316 316 317 316 315 315 315 316 315 316 317 315 316 316 315 315 316 318 317 317 318 317 317 316 317 317 316 316 316 316 316
309 308 308 308 307 308 308 308 309 309 309 310 310 310 310 311 311 310 310 310 310 310 310 310 309 309 309 308 309 312 316 316 314 314 312 312 312 312 312 312 312 313 313 313 313 314 316 316 316 316 316 315 317 316 317 318 317 316 317 318 316 315 317 316 316 315 316 317 316 316 316 318 318 317 317 316 316 318 317 317 317 316 317 317 317 316 316 316
309 308 308 308 307 308 308 308 309 309 309 310 310 310 310 310 310 310 309 309 309 309 309 309 309 309 308 308 310 311 314 315 313 313 313 313 312 313 312 312 313 313 314 314 313 314 315 315 315 317 317 315 316 315 317 317 317 318 316 319 319 316 320 318 315 316 315 316 317 315 316 323 324 317 316 317 316 317 317 317 317 317 317 317 317 316 317 317
310 309 308 307 307 308 308 308 309 309 309 309 310 310 310 310 310 309 308 308 308 308 308 308 308 308 308 311 314 311 312 314 313 313 313 313 313 312 312 312 314 314 314 314 313 313 314 315 315 317 317 317 316 315 317 316 317 319 316 321 324 319 322 320 314 316 316 316 316 316 317 322 322 316 315 318 316 316 317 317 317 317 317 317 317 317 317 317
310 308 308 308 307 308 308 308 309 309 309 309 310 310 310 309 308 307 307 307 307 307 308 308 307 308 308 311 314 313 313 313 313 312 312 313 312 312 312 313 314 314 314 314 313 314 314 315 316 316 316 316 317 318 319 318 318 320 318 324 325 319 324 322 314 315 317 316 315 316 318 320 319 316 316 317 317 317 317 317 317 317 317 317 318 318 318 318
310 308 308 307 307 308 308 308 309 309 309 309 309 309 308 307 306 306 306 306 306 306 307 307 308 310 310 311 313 314 313 313 313 312 312 312 312 312 313 313 314 315 314 314 314 315 315 316 316 316 316 316 320 324 324 322 323 323 321 324 324 320 322 322 317 315 316 317 316 315 318 320 319 316 317 318 317 318 317 318 318 317 318 318 318 318 318 318
309 308 308 307 308 308 308 308 308 308 309 309 308 307 306 306 305 305 306 306 306 306 307 308 308 309 311 312 314 314 313 313 312 312 312 311 312 312 313 314 315 315 315 315 315 315 316 316 316 316 316 317 320 326 327 321 321 324 319 321 325 321 319 322 321 316 315 317 318 317 317 319 319 315 315 317 317 317 317 318 318 318 317 318 318 318 318 318
309 308 308 307 308 308 308 308 308 308 308 307 307 306 306 306 306 306 306 306 306 307 308 310 309 310 311 312 314 314 313 314 312 312 312 311 312 312 313 314 314 315 316 316 316 316 316 314 317 320 317 316 318 324 332 327 324 326 321 320 323 321 319 322 321 317 316 317 317 318 318 318 319 315 314 316 316 316 317 317 317 318 318 318 318 318 318 318
309 308 308 307 307 307 307 308 307 308 307 307 307 306 307 307 306 306 306 306 307 308 309 310 310 312 313 311 313 314 313 313 313 312 312 312 313 313 314 314 314 316 315 316 316 315 316 315 318 323 319 317 318 320 331 330 324 327 326 325 324 320 318 319 318 315 315 317 318 319 318 317 318 316 314 315 316 315 315 317 317 317 318 318 318 318 318 318
308 307 307 307 307 307 307 307 307 307 307 307 307 307 307 308 309 309 308 307 308 310 311 310 310 312 313 311 313 315 313 313 313 312 312 312 313 314 315 315 315 316 316 320 318 313 320 323 322 327 324 320 320 319 323 323 319 322 325 324 322 321 318 317 319 316 313 316 320 320 319 317 316 315 313 313 315 314 313 315 316 317 318 317 318 318 318 318
307 306 307 307 307 307 307 307 307 307 307 307 307 307 307 307 310 311 309 307 308 311 312 311 311 313 313 312 314 315 313 313 313 311 312 312 313 314 315 316 316 317 317 318 317 316 323 326 325 330 328 320 319 319 319 319 319 323 325 323 323 324 319 316 318 317 314 315 320 321 318 316 315 314 312 312 313 313 313 314 315 317 317 317 318 318 318 318
307 307 307 307 307 307 307 307 307 307 308 307 307 308 309 307 310 311 309 308 308 309 312 311 311 313 314 313 314 314 312 313 314 312 312 312 314 314 315 317 317 319 318 315 318 320 321 325 327 325 319 316 318 319 320 323 324 326 325 321 324 326 320 317 318 318 316 316 320 322 318 316 315 314 312 310 312 314 313 314 315 316 317 317 317 317 317 317
308 307 307 307 307 307 307 307 308 308 307 307 307 310 310 308 311 311 309 310 309 309 310 311 312 312 314 314 314 314 312 313 314 313 312 312 314 314 315 316 316 319 319 318 322 320 319 323 323 316 313 317 319 320 323 324 324 328 326 322 326 326 320 319 319 317 317 316 318 321 319 317 316 317 317 313 312 314 315 315 314 315 316 316 317 316 317 316
311 309 307 307 307 308 308 308 308 308 307 306 308 310 310 309 312 311 310 311 312 311 309 310 312 311 313 314 313 314 313 313 313 313 312 312 314 314 315 315 315 318 319 320 322 321 322 321 316 313 317 323 320 320 326 323 319 324 328 328 328 324 319 320 320 319 320 320 320 320 320 322 323 323 323 318 313 314 315 316 315 316 316 316 317 316 317 316
315 314 311 310 308 308 308 308 308 308 307 306 308 309 309 310 311 310 311 312 313 313 310 310 311 311 312 312 312 314 315 314 314 314 312 312 314 315 315 313 314 318 319 320 319 320 321 316 314 316 319 324 324 321 327 326 319 319 323 326 325 324 323 323 324 322 320 321 322 319 318 326 330 323 319 316 313 314 313 314 315 317 318 317 317 317 317 317
316 317 316 315 313 310 309 309 308 307 307 306 307 308 307 309 311 309 311 314 314 312 310 310 311 310 312 312 313 314 314 315 315 314 312 312 314 315 315 314 314 317 317 317 317 318 319 315 318 323 321 324 325 320 322 326 322 316 319 323 326 330 328 327 327 321 318 319 318 317 317 322 322 315 314 315 314 314 312 311 312 314 317 317 317 318 317 317
317 316 317 318 317 314 312 312 310 307 308 306 307 308 307 309 311 309 312 315 315 312 310 310 309 310 313 312 313 313 314 317 316 314 312 313 315 314 316 316 314 314 314 316 318 317 317 317 321 326 325 324 324 320 320 323 323 320 321 324 328 329 325 327 329 322 320 321 322 324 320 320 320 316 317 316 314 315 315 315 314 311 315 316 316 318 317 318
319 317 317 318 318 316 315 316 312 308 309 309 307 306 307 309 310 310 314 314 313 312 311 309 310 311 312 312 312 313 315 316 316 315 313 314 315 314 315 315 315 318 314 316 321 318 317 321 323 324 325 324 325 325 322 321 322 323 322 324 329 329 327 332 332 325 324 320 322 327 320 318 324 326 324 319 316 318 318 322 319 312 314 315 314 316 316 318
320 319 317 319 319 318 317 317 313 310 311 310 307 306 307 309 309 312 315 312 310 312 311 310 311 312 312 312 312 313 314 315 315 315 313 315 316 313 314 314 314 317 312 315 325 320 315 318 320 322 324 324 325 324 324 325 322 320 320 325 330 330 330 332 330 325 324 317 319 327 321 314 320 324 323 317 317 321 320 321 318 311 314 316 315 317 318 319
320 319 318 319 320 318 318 318 315 313 313 311 308 306 307 310 311 311 310 310 314 313 309 309 312 313 313 313 312 312 314 315 315 315 313 315 315 313 314 313 313 318 317 320 326 321 314 313 314 319 320 320 320 318 318 321 318 317 324 329 329 332 333 333 331 324 318 317 322 327 323 315 316 323 323 318 321 323 320 320 318 316 318 318 318 319 319 318
319 319 318 319 320 318 318 318 317 316 315 312 308 306 308 313 314 311 308 310 318 315 308 310 312 312 312 313 313 313 315 315 313 314 314 315 315 314 314 313 316 323 322 321 322 319 317 316 314 315 314 314 318 318 316 318 318 321 330 330 323 328 333 331 329 322 315 318 323 324 323 316 315 322 322 320 323 321 318 319 321 322 320 318 318 319 318 318
317 318 319 319 320 319 318 318 318 318 315 311 307 307 311 313 312 313 311 311 315 315 312 312 313 312 312 312 313 314 317 317 313 313 316 317 316 315 315 316 319 322 319 319 320 319 321 322 317 314 314 315 320 322 318 320 324 325 326 322 315 319 325 324 325 323 320 320 319 320 322 317 315 318 318 320 323 319 315 317 320 321 320 318 318 318 317 318
315 317 318 319 320 319 319 319 319 319 315 309 307 311 315 313 311 313 313 311 313 316 314 313 313 313 312 313 313 313 316 318 314 313 315 316 316 315 315 317 319 321 322 322 321 320 322 323 318 315 316 315 318 321 318 320 324 322 320 320 319 319 319 321 322 321 322 322 319 317 318 320 320 319 320 320 318 316 315 314 317 318 318 319 318 317 317 317
312 314 317 318 318 318 319 319 320 320 315 308 309 314 315 311 310 312 312 312 315 316 315 314 313 312 312 312 313 313 314 316 314 314 315 316 316 315 315 315 315 320 326 321 318 320 320 322 321 317 316 317 317 318 319 321 321 320 321 320 319 323 323 323 322 321 323 324 321 316 318 324 325 321 321 317 313 315 316 315 316 315 316 318 317 317 317 316
311 312 314 316 317 318 319 318 320 320 314 309 311 313 311 309 311 312 312 315 318 318 316 314 313 312 312 314 315 313 314 317 315 315 317 316 315 316 315 314 313 318 322 317 316 318 316 321 323 316 313 317 318 315 315 319 318 318 321 319 318 323 322 321 323 324 324 322 319 318 322 325 323 320 319 314 312 313 313 313 314 314 315 316 316 318 317 316
310 311 311 314 315 317 318 318 319 318 313 310 312 312 309 311 315 316 315 317 319 317 315 313 314 314 312 314 316 312 314 319 317 315 317 316 315 316 315 315 313 314 315 314 318 319 316 320 321 314 313 315 315 314 313 315 317 317 318 319 322 324 318 317 320 318 317 317 316 318 321 320 316 316 316 314 313 313 312 312 312 313 315 314 315 317 316 316
309 310 311 312 313 315 317 317 318 317 313 311 312 311 310 312 317 319 318 318 317 315 315 314 315 315 312 314 318 315 314 319 317 315 317 317 317 317 315 315 313 313 313 312 316 322 322 323 319 316 317 314 312 314 313 312 316 320 321 319 319 320 320 323 323 318 316 316 317 317 315 314 313 314 315 316 315 315 316 316 313 312 314 313 315 316 315 316
308 309 310 311 312 313 315 315 316 316 313 311 311 313 314 314 314 316 317 317 316 316 317 318 317 316 314 315 317 316 315 317 316 316 317 316 317 317 315 315 314 312 312 311 313 319 320 319 317 315 318 316 314 316 316 314 315 319 321 318 320 323 324 324 321 319 318 316 319 320 315 313 313 312 314 316 316 316 317 319 317 314 313 313 315 315 315 316
307 307 308 310 311 312 313 314 315 315 313 311 311 313 315 314 312 313 314 316 317 317 317 320 319 316 316 316 317 317 315 315 317 316 316 315 316 316 314 315 315 312 311 312 314 319 319 316 316 315 315 316 316 317 319 319 316 317 317 315 320 325 324 323 320 319 320 317 317 317 314 314 314 313 315 316 318 317 316 319 319 314 313 315 315 315 317 317
305 306 307 308 309 311 312 313 314 314 312 310 310 312 313 313 311 311 312 314 316 317 319 322 322 317 316 317 316 317 315 316 317 316 316 315 315 316 314 313 316 314 311 311 314 318 317 314 315 316 314 315 317 318 319 320 318 319 319 318 319 319 319 322 320 319 321 319 318 315 313 314 313 314 316 316 318 319 317 320 318 311 312 315 316 317 318 316
304 306 307 307 308 310 312 312 314 313 310 309 309 309 311 313 312 311 311 312 314 315 317 320 321 319 319 318 316 316 316 316 317 316 316 314 314 317 316 314 316 316 313 313 315 316 315 316 320 320 317 318 322 321 317 317 318 318 318 319 318 317 318 319 317 318 319 320 323 319 314 314 313 314 317 317 318 318 316 317 316 313 314 315 316 317 317 316
303 305 307 307 307 308 311 312 313 312 310 309 309 309 310 313 314 313 313 312 313 314 314 316 318 319 321 321 319 317 316 316 317 317 316 315 315 318 317 314 314 315 315 315 315 314 315 319 323 322 319 318 320 319 314 313 316 317 317 317 316 317 319 318 320 322 319 320 325 321 315 314 314 317 318 316 316 315 314 315 315 315 315 315 316 316 316 316
303 304 306 308 307 308 310 311 312 312 310 310 310 310 311 313 314 315 315 313 314 314 314 316 317 316 318 320 320 320 317 315 316 317 317 316 315 317 316 314 314 315 315 316 316 313 315 318 318 319 319 318 319 321 318 316 316 317 318 318 317 318 320 321 325 325 322 321 320 318 317 314 316 322 318 312 313 314 314 315 315 315 316 315 316 315 316 316
303 303 306 308 308 309 309 309 311 312 311 311 311 311 312 312 313 314 315 314 314 315 314 316 316 315 317 319 319 320 318 316 317 317 317 317 316 315 314 314 316 316 315 318 318 314 315 319 319 318 319 319 321 322 321 319 318 319 322 322 318 318 319 319 320 319 320 323 320 318 317 314 318 325 318 312 316 315 312 314 315 315 315 315 315 315 316 316
302 302 303 305 308 309 309 309 309 310 311 311 312 312 311 312 312 313 315 314 314 314 315 316 315 315 318 318 318 319 317 317 319 318 318 320 318 315 313 313 315 315 314 315 315 314 320 322 319 318 317 317 320 322 322 321 318 318 323 322 318 318 317 317 318 317 317 320 319 317 317 313 315 320 318 319 320 316 314 315 315 315 315 315 316 316 316 316
301 302 302 303 306 308 309 309 308 309 310 310 311 312 312 312 313 313 313 314 314 313 315 316 315 315 317 317 317 318 317 316 317 317 319 322 320 316 313 312 313 312 312 313 312 316 324 323 317 316 317 316 320 325 324 322 319 318 320 320 318 319 317 316 318 318 316 316 316 315 316 315 314 315 316 319 319 317 316 314 313 315 315 315 316 315 315 316
302 302 302 303 305 307 308 309 308 308 310 309 310 311 312 312 313 313 313 313 314 314 314 315 315 315 316 316 316 317 317 316 316 317 318 319 318 316 313 312 313 312 312 313 312 317 322 319 317 317 317 317 322 323 320 318 318 318 318 318 318 318 318 317 317 316 315 315 316 315 315 315 314 313 314 316 317 317 314 312 313 315 314 315 315 315 315 315
301 302 301 302 305 305 306 308 308 308 308 309 309 310 311 312 313 313 313 312 313 313 313 314 315 315 315 315 315 316 315 315 315 316 316 316 317 317 315 314 313 311 313 313 312 317 322 320 318 318 317 318 319 318 317 317 318 318 317 317 317 317 318 318 316 315 316 316 316 315 317 317 315 313 314 317 317 314 312 312 314 314 314 315 315 315 315 315
300 301 301 302 303 304 304 306 307 307 307 308 309 309 310 311 312 312 313 313 313 313 313 314 314 314 314 314 314 314 314 315 316 315 315 315 317 317 316 317 313 310 313 316 314 315 319 320 319 317 317 318 317 316 316 316 316 317 318 318 317 317 317 317 316 316 317 317 317 316 318 317 314 313 314 314 314 313 312 313 314 314 314 314 314 314 314 315
300 300 301 302 303 303 303 304 305 307 306 307 308 308 308 310 311 312 312 312 313 313 313 313 313 314 314 313 314 314 313 314 316 315 313 313 315 316 316 318 316 311 312 316 315 313 315 318 318 317 317 317 316 316 316 316 316 316 317 317 317 317 316 315 315 316 316 317 316 316 317 316 314 314 313 313 313 313 313 313 314 314 314 314 314 314 314 314
300 300 301 302 303 302 303 303 304 306 306 306 307 307 307 308 309 310 311 312 312 313 313 312 313 313 314 314 314 313 313 313 314 314 313 312 313 314 314 316 317 315 315 315 316 315 315 315 315 316 317 318 317 317 317 316 316 315 316 317 316 316 317 316 315 315 315 316 316 316 316 316 314 313 313 313 313 312 312 313 313 314 314 314 314 314 314 315
299 300 301 301 302 303 303 304 304 305 305 305 305 306 306 307 307 308 310 310 311 312 312 312 312 313 314 314 314 313 313 313 313 313 313 313 313 314 314 314 314 315 315 314 315 315 315 315 314 315 317 317 317 318 317 316 316 316 317 316 315 316 316 316 316 316 315 315 316 316 315 315 314 314 315 315 313 313 313 313 314 314 314 314 313 314 314 314
Wind_Speed
20 19 20 20 21 20 20 19 19 18 18 18 17 16 15 14 14 13 12 11 10 9 9 9 9 9 10 10 8 7 7 6 6 7 8 8 8 7 6 5 5 6 5 6 6 5 6 5 6 7 10 9 5 4 5 7 4 1 2 3 1 2 0 3 4 5 5 4 7 12 13 9 6 7 7 6 6 9 8 7 7 7 7 6 6 7 7 9
21 21 20 20 21 21 20 20 19 19 18 18 17 16 15 14 14 13 12 11 10 9 9 9 10 10 10 10 9 7 6 6 7 8 10 8 7 7 6 5 6 6 6 7 7 7 7 6 5 5 8 8 6 6 6 6 5 2 2 3 3 4 1 5 1 3 5 7 11 13 14 9 8 12 10 5 5 8 6 6 7 7 8 8 8 9 8 8
20 21 21 20 21 21 21 20 20 19 18 17 16 16 14 14 13 13 12 11 11 10 10 10 10 11 10 10 8 7 6 6 7 9 11 9 6 6 6 6 6 6 7 8 9 9 9 6 4 6 8 7 7 8 7 5 5 3 2 2 4 5 2 7 6 4 4 13 14 11 12 6 7 14 11 5 5 6 7 8 9 10 12 12 12 12 11 10
21 21 22 21 22 22 21 20 20 19 18 17 16 15 14 13 13 12 12 11 11 11 11 11 11 11 11 10 8 7 6 4 6 9 10 8 5 6 6 6 6 7 7 8 10 10 8 5 3 9 9 6 8 7 6 7 5 3 3 4 5 3 2 5 5 7 6 14 15 11 9 5 9 13 11 7 4 4 11 15 13 12 14 15 16 16 14 13
21 21 22 22 22 22 22 21 20 19 18 17 16 15 15 14 13 12 12 11 11 11 11 11 11 12 11 11 9 7 6 1 4 9 9 8 6 7 6 6 6 7 7 8 10 9 8 5 2 8 8 4 6 5 5 9 7 2 2 3 1 2 3 2 2 6 7 11 13 10 7 7 10 10 10 9 5 4 11 17 17 14 14 14 15 17 17 16
20 22 23 23 23 22 22 21 20 20 18 17 16 16 15 14 13 12 12 12 11 11 11 11 11 12 12 11 9 9 9 2 2 8 10 9 9 9 8 7 6 6 7 8 9 9 10 6 2 6 5 2 6 5 4 11 9 2 1 3 5 2 4 1 1 4 5 9 10 7 5 8 9 6 9 12 10 6 4 8 13 12 11 14 15 16 18 18
21 22 23 24 24 23 22 22 20 20 18 17 16 16 15 14 13 12 12 12 11 11 11 11 12 12 12 11 10 10 11 5 2 5 10 11 10 10 10 8 7 6 7 8 9 10 9 7 4 6 3 1 5 5 6 9 8 4 1 1 5 3 4 2 3 4 4 6 6 5 5 6 7 4 6 11 14 10 6 5 7 7 6 12 16 16 16 15
22 22 23 23 23 22 22 21 20 19 18 17 16 15 15 14 13 12 12 11 11 11 11 12 12 12 12 12 10 8 10 8 1 2 10 13 11 12 11 10 8 6 7 8 9 9 7 6 6 7 3 2 6 7 6 6 3 3 2 2 5 3 3 2 3 5 3 3 3 3 4 4 5 5 5 12 15 14 13 11 10 9 5 9 13 14 14 14
22 21 22 22 22 22 22 21 21 20 19 18 16 15 14 13 13 12 12 11 11 11 12 12 12 13 13 12 9 5 8 9 4 3 9 13 13 13 12 10 9 6 7 8 8 7 6 4 4 6 2 1 7 6 5 5 1 2 5 6 6 4 3 3 3 4 3 1 1 2 2 1 3 3 8 15 16 15 17 15 14 12 10 10 11 12 13 14
21 21 22 22 22 22 22 21 20 20 19 18 17 15 14 13 12 12 12 11 11 12 12 13 13 13 13 12 8 4 6 7 6 6 9 13 14 13 12 10 9 7 7 8 9 8 7 3 1 3 2 2 5 4 3 5 1 4 10 8 7 5 4 3 2 4 4 1 0 1 2 3 2 2 6 11 9 12 18 18 16 14 14 13 13 14 14 15
21 21 22 22 22 22 22 21 20 19 19 17 16 15 14 13 12 12 12 12 12 12 13 13 13 13 13 12 9 6 4 4 6 9 10 14 14 12 11 10 8 8 8 9 10 9 7 4 1 3 3 2 4 4 5 6 5 10 13 7 4 4 2 3 3 4 4 1 1 1 3 5 2 3 12 15 6 8 15 19 18 17 16 15 15 15 16 17
20 21 22 22 22 22 22 21 20 19 18 17 16 15 14 13 12 11 11 12 12 12 13 13 14 14 13 12 11 9 3 2 6 9 12 14 14 11 9 8 8 7 8 9 10 9 7 4 2 3 3 4 3 3 5 5 7 11 10 4 1 2 1 5 5 5 4 2 1 2 4 6 2 8 20 19 11 9 11 17 19 18 18 16 16 17 17 18
19 21 22 22 23 22 22 21 20 19 18 17 16 15 13 12 11 11 11 12 12 13 13 14 14 14 12 9 11 11 5 3 6 9 12 14 13 11 9 8 7 7 8 8 9 9 8 5 4 5 6 6 3 4 5 5 7 6 3 4 2 5 4 7 6 5 4 2 2 3 2 7 5 13 20 16 13 13 12 15 19 18 18 17 16 16 17 17
19 21 22 23 23 23 22 21 20 19 18 17 16 14 13 12 12 11 12 12 12 13 13 14 14 14 12 6 6 11 9 5 6 10 12 13 12 11 9 7 6 7 6 6 7 8 8 7 5 6 7 7 7 8 5 3 4 2 1 3 2 2 4 6 4 7 5 2 3 5 1 7 8 13 16 12 12 15 15 16 17 17 16 16 16 16 17 17
19 21 23 23 24 23 22 21 20 19 17 16 14 13 12 11 11 11 12 12 12 13 13 14 14 12 10 5 4 8 10 8 9 11 12 13 13 11 9 8 7 7 7 6 7 8 8 8 7 6 7 8 9 7 3 3 2 2 2 3 3 3 4 6 2 8 5 3 4 5 1 7 9 11 8 5 10 13 14 15 14 15 15 16 17 17 18 18
20 22 24 24 24 23 22 20 19 18 16 15 13 12 11 11 11 11 11 11 11 12 13 13 14 11 5 4 6 8 10 11 11 12 13 13 13 11 10 9 8 8 8 7 7 8 9 8 6 7 7 6 6 5 4 4 4 3 3 2 3 2 3 4 2 4 5 2 2 2 2 4 5 4 1 3 7 10 11 12 13 14 15 16 17 18 20 20
20 22 24 24 25 23 22 20 18 17 16 14 13 12 12 11 11 11 11 12 11 11 11 10 13 11 4 4 7 9 12 12 13 14 14 14 13 11 11 10 9 9 9 9 8 9 8 7 6 5 3 2 3 5 5 3 3 3 1 2 4 3 3 2 3 2 4 4 1 2 3 6 7 10 12 8 8 9 12 14 16 15 16 17 17 19 22 23
20 22 24 24 24 24 23 21 19 18 16 15 14 13 13 12 11 11 11 12 12 12 10 9 12 7 5 8 8 10 13 13 14 16 15 15 13 13 12 10 10 10 10 9 6 7 6 4 4 3 2 2 2 5 4 3 4 3 3 2 3 2 3 3 3 2 2 3 2 3 4 9 10 15 22 23 18 16 18 20 21 20 21 21 20 22 23 25
21 22 24 25 24 24 23 22 21 18 17 15 14 14 13 13 12 11 12 14 14 10 5 11 15 5 3 11 13 11 14 15 15 17 17 16 15 14 13 11 11 10 8 5 2 4 5 3 4 3 1 2 3 5 6 7 7 6 6 5 3 2 2 3 3 2 1 2 4 6 7 9 10 11 18 25 24 20 21 23 24 25 25 25 24 25 26 28
21 24 25 25 24 24 22 22 21 19 18 16 17 16 13 13 9 6 11 15 15 7 1 12 19 5 2 13 18 14 14 15 15 18 19 17 17 15 13 12 10 6 3 4 3 2 3 4 2 3 5 7 6 7 7 5 6 6 5 4 3 3 2 3 2 4 2 2 5 7 7 10 10 10 14 24 25 18 18 20 23 26 27 27 27 28 29 31
21 23 25 25 24 23 22 21 20 19 19 18 20 17 12 14 8 4 11 12 15 9 2 11 19 7 2 10 18 16 15 14 15 20 19 18 18 13 11 10 6 2 1 4 4 1 4 3 4 7 8 8 7 7 6 4 6 5 5 4 3 1 2 2 1 5 3 2 5 4 6 11 11 10 14 20 17 16 19 20 23 27 28 28 28 30 32 33
20 22 23 23 23 22 21 21 20 20 20 20 22 15 11 17 10 7 12 7 13 15 3 8 15 10 4 8 15 15 12 9 10 18 19 19 18 12 10 7 4 3 2 4 5 4 4 1 7 9 7 5 2 5 7 5 6 5 4 4 2 1 2 2 3 4 2 2 4 5 6 12 13 9 13 17 17 22 26 24 25 27 27 29 30 32 34 34
19 20 21 21 21 21 21 21 21 21 21 21 21 14 11 18 11 8 13 5 8 18 12 9 12 12 10 10 15 15 11 8 9 17 20 19 18 12 11 8 4 4 2 4 6 4 2 5 9 9 6 6 5 5 8 6 4 4 4 5 1 3 1 2 4 4 1 1 3 4 5 11 12 7 9 17 21 25 27 24 26 26 26 29 30 32 34 34
16 17 18 18 19 19 19 20 21 21 22 22 21 13 11 17 12 9 13 3 2 13 17 14 11 14 14 10 14 15 11 9 9 17 22 22 18 12 10 9 6 5 3 5 8 6 5 6 4 5 5 7 5 4 7 6 2 1 3 6 3 2 2 2 2 3 3 4 3 4 5 8 7 4 6 10 10 13 17 16 20 23 24 27 28 29 30 31
14 14 14 15 15 16 17 18 20 21 22 23 22 14 11 14 11 10 11 1 2 6 12 15 11 12 15 12 13 14 10 8 8 15 23 23 19 10 7 9 7 4 6 7 7 5 6 5 2 6 3 5 7 3 3 6 2 4 1 5 6 5 5 2 3 5 5 5 4 4 4 6 6 6 7 7 6 9 12 10 15 21 22 24 27 28 28 26
13 13 13 13 13 14 15 14 17 20 21 23 23 17 11 11 10 10 8 3 2 3 5 12 11 11 14 12 16 15 7 5 7 15 24 22 18 11 5 6 4 3 7 6 4 2 3 0 3 6 5 6 7 2 3 5 5 1 4 4 6 7 6 4 5 4 1 3 4 3 2 6 8 9 10 8 9 12 12 10 16 24 25 26 29 28 26 23
12 12 12 12 12 13 12 12 15 18 17 18 22 19 11 9 10 10 6 5 3 5 7 9 10 11 13 13 19 14 4 7 8 13 24 21 16 11 6 4 3 3 5 5 2 2 2 3 4 5 5 6 6 2 4 6 7 2 5 4 6 7 6 5 6 3 2 3 5 3 3 3 7 10 9 7 9 10 10 11 15 23 29 30 29 27 24 20
14 13 12 11 11 12 11 11 14 16 15 16 19 19 13 10 11 9 6 3 2 5 6 7 9 11 13 17 21 11 8 14 9 9 22 19 13 10 4 5 6 5 4 6 4 4 2 5 5 5 5 3 4 4 5 8 6 5 5 5 6 7 6 5 6 2 1 2 5 4 2 2 6 8 7 4 5 8 9 12 12 19 26 26 23 21 17 12
18 17 15 13 10 11 11 11 14 16 14 14 17 19 15 13 11 6 4 1 3 3 3 8 10 10 14 16 14 9 11 10 4 10 21 17 11 7 3 4 5 5 3 5 6 4 1 4 5 6 5 4 4 2 2 6 4 4 4 5 5 5 5 5 5 3 3 2 5 5 3 2 6 6 5 2 3 7 9 9 9 14 19 19 16 13 9 7
21 21 19 16 13 13 12 11 14 14 12 12 15 19 17 12 7 5 2 3 2 2 2 7 8 10 15 12 4 6 8 3 5 13 14 10 9 6 4 4 3 3 1 5 4 1 2 1 1 3 3 5 5 3 4 4 7 7 6 7 7 6 5 4 3 4 3 4 6 7 8 5 5 6 4 4 5 7 5 5 7 7 7 6 5 6 8 5
17 22 23 19 16 15 13 12 13 12 11 12 16 20 16 7 3 4 5 3 2 2 3 3 3 8 15 11 5 4 4 3 7 12 7 4 6 3 4 4 3 4 2 3 3 4 5 2 0 1 3 5 7 6 7 5 7 7 5 5 4 4 4 5 5 4 1 6 6 5 5 5 5 6 4 5 7 6 3 3 5 3 4 7 8 8 6 3
11 17 21 21 19 17 16 14 14 13 11 13 19 21 12 4 1 4 3 1 1 3 4 3 3 6 10 8 6 5 4 3 5 7 6 4 5 4 4 5 4 4 1 3 1 4 3 2 2 2 1 4 7 5 4 5 5 5 5 6 4 2 3 3 3 0 3 6 4 3 0 3 6 6 5 8 9 5 0 4 2 2 5 8 8 3 3 6
10 11 14 19 21 19 18 15 14 13 11 17 22 15 7 3 6 7 3 2 2 3 5 5 5 8 9 7 5 5 4 3 5 5 4 4 5 5 4 4 6 5 3 5 3 1 2 6 2 3 1 5 7 5 3 1 0 4 5 6 5 3 2 3 4 2 4 5 4 2 1 3 5 4 7 10 10 8 6 6 4 3 4 5 4 6 8 10
10 9 10 15 18 20 19 16 15 12 12 20 19 8 4 5 6 5 4 3 1 2 3 5 7 9 9 5 5 6 3 1 6 6 4 5 5 5 5 5 5 4 4 4 3 5 4 5 4 5 3 7 8 6 8 6 4 5 5 6 6 5 5 4 4 3 4 4 4 3 1 3 2 3 7 7 7 11 12 11 11 10 8 6 7 10 11 13
10 9 10 11 14 17 18 16 15 13 17 21 12 4 6 8 4 4 5 3 1 2 3 6 9 8 6 2 2 7 4 1 5 5 4 6 5 6 6 6 7 5 5 5 2 3 5 5 6 4 5 12 10 6 8 7 2 3 3 5 4 5 5 3 3 6 4 1 3 2 3 5 4 6 9 8 11 14 17 19 19 22 22 18 17 16 14 15
12 11 11 10 12 15 16 17 15 14 19 17 8 4 8 5 3 4 4 3 3 4 7 6 5 5 5 2 2 6 2 2 5 4 3 4 3 6 6 5 9 9 7 7 2 2 4 4 5 1 1 6 7 5 6 4 3 2 3 4 5 5 7 3 3 0 3 2 4 2 5 6 3 7 10 9 9 8 11 15 16 20 21 21 24 21 17 16
12 13 13 12 13 13 15 17 13 13 16 11 6 7 4 1 2 2 0 1 6 8 8 5 2 4 5 3 3 7 2 2 5 4 3 3 2 6 7 5 9 12 10 7 3 2 5 2 4 2 2 4 1 3 2 2 4 5 4 6 3 2 3 3 1 2 2 4 4 2 7 6 3 6 4 3 2 3 6 8 9 13 14 18 24 22 19 15
11 13 15 15 15 13 14 13 11 12 13 7 6 8 2 0 1 2 3 1 4 7 5 4 3 4 5 5 4 6 5 4 5 5 4 4 4 7 9 5 7 15 16 11 5 3 5 3 4 1 3 4 3 3 0 4 2 5 4 4 4 2 1 2 2 2 1 3 4 3 5 5 6 7 1 3 6 7 8 7 5 9 13 16 19 18 14 8
9 9 10 15 18 16 13 11 11 12 10 6 7 7 2 1 3 1 4 4 3 4 3 4 3 3 5 6 5 5 6 6 7 6 4 4 5 7 12 9 7 15 20 15 7 2 3 4 4 1 1 2 3 2 4 1 2 2 2 2 2 3 4 4 3 4 4 3 4 4 3 5 8 6 6 5 7 6 9 8 6 11 15 15 12 8 5 6
8 6 3 10 18 18 15 12 11 8 5 3 5 3 1 1 4 6 2 3 4 2 1 2 2 3 6 6 5 6 5 5 8 6 4 6 5 4 8 10 5 9 18 17 8 2 2 3 4 2 3 0 1 4 7 8 5 2 3 3 2 1 2 2 1 2 5 4 3 3 6 8 6 5 7 8 8 8 8 5 3 5 7 5 2 2 5 11
8 4 2 8 14 18 18 12 7 4 3 2 2 1 2 0 2 8 6 2 1 2 2 2 2 2 4 4 5 6 5 4 6 6 3 5 5 2 6 13 10 8 11 10 7 5 3 3 4 2 1 3 6 6 8 11 10 7 7 7 7 5 4 2 3 2 2 4 4 3 7 12 5 6 7 8 7 7 6 4 4 5 6 6 6 6 8 13
9 2 3 9 12 17 18 8 3 4 2 2 3 3 3 1 1 4 4 3 3 0 2 1 1 1 1 2 4 5 6 5 5 6 4 5 7 4 6 14 18 16 11 7 7 7 4 4 4 3 4 5 6 5 3 6 5 3 4 5 5 4 5 5 5 4 1 3 4 4 5 13 4 7 5 5 5 5 4 2 2 6 7 7 9 11 12 15
9 4 5 10 12 16 15 5 3 5 3 3 6 6 7 4 1 2 3 4 4 3 2 1 1 2 1 0 1 4 5 5 6 7 6 5 6 3 3 9 16 14 9 5 4 5 4 3 3 2 3 3 4 5 4 3 0 2 3 3 4 4 5 5 5 4 3 4 4 3 6 12 2 5 1 4 8 9 6 2 3 6 7 9 12 16 17 17
8 6 6 10 15 18 13 4 5 6 4 4 6 6 9 8 5 4 3 4 4 3 3 2 2 2 2 1 2 2 2 3 4 5 4 4 4 0 5 3 12 9 4 4 6 8 6 3 4 3 1 3 4 4 4 4 1 3 4 4 6 7 6 3 2 2 2 6 8 5 7 11 2 5 5 3 1 2 2 7 8 8 11 15 17 17 17 17
6 6 5 8 16 19 11 2 3 6 5 5 5 7 8 5 8 12 8 4 6 5 2 3 3 4 2 2 3 1 0 2 1 1 1 1 2 2 8 6 6 5 2 3 8 12 8 3 5 6 5 6 4 3 4 2 1 2 3 5 7 9 10 6 3 3 6 10 9 6 9 14 8 3 6 5 5 6 8 9 10 14 18 19 17 15 17 19
4 4 4 5 10 16 12 6 3 2 5 8 5 5 9 5 5 14 12 6 8 9 4 2 4 5 3 2 2 1 1 2 2 1 2 1 2 2 6 8 7 6 4 5 8 8 4 2 6 8 9 9 7 6 6 5 6 5 7 9 9 10 13 9 4 7 11 9 7 9 13 17 17 8 2 4 6 6 6 9 15 18 15 14 17 22 27 28
3 2 4 5 4 9 11 11 8 3 3 8 5 3 9 8 3 8 12 9 10 12 6 1 3 4 4 5 4 3 2 1 2 1 2 2 2 3 4 6 7 4 2 3 4 5 4 2 6 6 8 7 5 4 4 7 9 11 11 11 10 10 12 12 11 14 12 7 9 14 12 14 23 16 5 5 9 6 4 8 13 13 13 16 23 30 32 31
6 2 5 8 5 3 7 11 11 7 4 5 5 3 7 11 7 7 10 9 8 11 6 2 6 8 7 8 6 3 3 3 1 2 2 3 2 2 4 4 4 3 2 2 2 4 4 3 3 3 4 4 2 1 1 3 4 5 6 9 9 10 12 15 18 18 12 8 11 13 9 12 21 15 4 6 10 8 6 13 18 17 18 22 25 27 28 27
9 6 6 9 6 3 7 10 10 9 7 5 4 4 7 12 13 9 8 5 5 9 10 7 9 12 10 9 7 5 5 4 5 5 4 3 3 2 1 2 1 3 3 2 2 2 3 3 0 3 2 5 4 3 2 3 1 1 4 6 7 10 14 16 17 16 11 10 13 13 8 11 17 11 2 8 15 17 17 18 22 25 26 25 23 22 23 24
11 7 5 5 6 4 6 9 9 8 9 6 5 5 5 9 12 9 7 8 6 6 11 13 11 11 12 10 9 9 9 8 8 7 5 4 2 2 3 2 1 2 4 2 2 3 1 2 2 4 2 7 7 5 3 4 4 4 6 8 9 12 13 12 12 11 10 12 14 15 14 15 14 8 10 19 20 17 19 20 22 28 29 26 24 24 25 26
16 11 6 3 3 4 4 5 7 6 6 7 8 8 7 8 9 7 6 12 13 8 10 15 11 6 9 11 11 12 12 13 12 10 10 11 7 6 6 4 5 3 2 2 1 2 1 1 2 4 1 7 7 5 6 6 3 5 9 13 16 14 11 10 9 8 11 13 13 11 11 13 11 4 11 22 16 9 17 24 25 28 30 26 23 23 24 26
23 18 11 4 2 2 3 2 5 5 6 9 11 10 10 8 7 6 4 11 19 19 18 18 12 6 6 10 15 19 19 16 13 9 11 12 9 7 6 5 6 7 5 4 3 2 4 4 2 3 3 6 6 5 5 3 2 6 12 16 17 13 11 11 10 11 13 11 9 9 10 12 11 5 8 15 12 10 18 26 29 30 26 22 20 22 26 28
Wind_Direction
183 188 188 179 175 177 179 180 182 180 179 181 175 172 178 181 187 191 191 189 186 186 188 190 188 188 187 189 192 196 204 204 206 202 190 183 186 190 191 212 214 196 197 196 193 176 163 155 153 145 153 165 184 204 193 208 219 199 117 98 219 230 178 265 229 179 144 154 179 180 176 155 159 174 151 132 139 147 154 163 161 169 171 169 151 132 138 158
185 186 190 186 179 178 179 181 183 181 181 183 176 174 181 183 188 192 190 189 187 187 190 191 187 188 188 189 192 195 202 201 209 205 187 180 185 199 209 216 210 200 200 194 186 171 155 143 140 145 160 177 193 187 179 193 199 188 120 125 218 206 71 353 338 146 118 154 173 179 181 170 181 181 167 173 178 162 156 164 172 172 171 181 177 167 167 165
188 187 190 190 185 179 180 184 183 182 182 183 179 175 182 186 190 192 192 190 188 189 189 191 189 187 189 190 191 191 196 202 213 208 192 187 190 203 213 213 206 200 198 194 187 178 165 147 158 188 188 200 197 179 175 179 193 202 118 136 238 208 127 16 29 54 112 158 163 175 186 185 188 179 174 187 188 184 191 182 180 188 190 192 191 187 187 184
191 190 190 191 190 183 181 186 185 183 181 183 180 177 182 189 193 193 193 192 190 191 189 191 189 187 190 190 187 186 187 202 218 207 196 195 197 198 197 202 203 198 194 193 194 187 176 156 177 201 203 219 201 179 182 182 187 197 136 171 236 196 121 9 30 45 87 152 163 167 161 151 172 177 182 176 154 227 224 208 206 214 210 205 201 200 199 199
193 191 191 193 194 187 182 187 187 183 182 183 182 181 183 189 196 196 194 193 192 192 190 189 187 188 190 189 187 179 168 169 222 200 194 195 194 190 182 187 193 192 190 190 197 197 188 172 172 202 208 225 184 166 194 189 178 152 134 152 158 116 114 343 27 55 79 137 152 146 128 144 164 177 187 180 171 225 237 226 227 232 227 219 209 205 206 207
200 194 193 194 195 191 186 187 188 185 183 184 184 185 186 190 197 200 198 195 194 193 191 189 187 189 189 190 188 180 175 146 157 182 188 190 190 185 176 180 177 181 187 185 193 192 186 178 183 207 207 206 176 168 183 190 187 160 151 91 65 91 131 142 152 90 93 123 127 123 128 154 159 182 198 203 211 207 217 215 217 224 227 226 220 210 207 208
206 198 196 196 195 195 190 187 189 188 186 186 187 188 189 192 196 202 203 199 197 193 191 189 188 190 190 190 187 190 204 206 106 167 187 187 187 184 179 177 167 170 176 177 185 179 176 182 215 225 202 167 188 178 162 178 182 153 192 109 81 97 124 141 179 145 121 120 117 126 142 157 167 196 209 218 224 216 213 207 212 226 214 211 217 217 213 210
208 202 200 199 197 196 193 189 189 189 188 188 190 191 192 195 198 202 205 203 200 194 192 189 188 191 189 190 191 196 218 224 221 164 184 185 186 185 184 178 169 167 164 174 176 164 180 205 229 232 225 237 190 168 151 151 163 141 157 154 111 100 115 136 179 169 157 130 124 153 171 185 193 219 238 235 231 221 226 239 245 248 226 200 206 212 210 207
209 205 200 199 198 196 195 192 191 190 188 189 190 192 194 199 201 202 205 205 202 196 192 189 190 192 189 192 192 195 221 225 227 179 179 187 189 188 191 186 179 178 167 176 175 167 196 210 230 227 229 228 164 145 139 133 264 190 145 139 125 110 120 123 154 166 167 177 201 224 254 246 194 234 261 250 244 228 225 236 243 243 236 220 213 211 210 213
208 205 200 198 197 196 195 193 193 192 189 190 191 192 195 200 204 204 204 204 202 198 192 189 192 191 190 192 186 191 221 221 218 203 186 189 193 195 198 195 192 193 186 181 182 188 198 179 151 186 154 92 127 109 109 129 149 140 129 127 128 131 139 137 160 154 149 159 344 236 304 303 181 166 260 248 239 226 221 226 235 238 237 231 228 227 227 232
208 205 201 197 196 195 194 193 194 194 192 192 191 193 195 199 204 206 205 202 201 198 192 191 191 190 192 192 190 196 211 209 207 206 197 191 194 200 201 202 200 200 204 190 185 193 194 185 151 162 154 106 111 88 95 111 118 130 124 112 124 142 156 173 166 159 159 122 68 63 320 297 152 162 251 246 232 227 218 219 226 232 233 232 232 234 237 242
209 206 201 197 195 194 193 192 193 194 194 192 193 195 196 199 204 206 206 202 198 196 194 192 190 190 191 196 205 206 204 215 202 200 198 190 191 200 197 199 200 198 207 197 190 192 184 185 185 163 146 140 132 86 103 110 119 134 125 99 22 20 332 221 188 174 175 127 114 54 335 290 207 215 251 257 249 237 218 215 219 224 230 235 238 240 242 248
211 206 201 196 193 192 191 191 192 194 193 192 194 195 196 199 202 204 205 199 195 194 194 193 190 189 187 197 215 212 217 238 204 196 194 189 189 192 184 186 191 188 200 195 186 188 184 189 170 132 117 131 132 113 126 113 118 144 124 101 69 15 324 239 200 173 158 132 165 84 313 274 261 241 257 275 254 228 214 211 215 221 229 236 240 241 245 249
211 205 201 194 191 189 189 190 192 193 193 193 193 194 196 198 199 201 202 198 195 194 194 193 189 187 189 198 216 213 221 223 201 194 189 186 182 177 172 172 170 173 185 181 175 180 183 182 160 124 110 122 125 120 108 68 106 146 69 62 78 77 295 276 184 160 151 184 181 104 189 261 283 274 279 289 246 217 212 212 215 223 231 239 243 245 249 251
211 203 197 192 188 186 186 190 191 191 191 191 190 193 192 193 197 197 198 198 195 193 192 191 187 184 191 209 212 205 209 205 195 189 183 178 175 170 163 157 155 156 154 153 164 172 174 174 165 130 109 120 122 113 68 18 20 61 82 326 345 146 265 310 175 168 165 216 191 119 194 267 281 288 306 284 221 209 216 221 223 231 237 245 251 252 254 256
210 198 194 189 185 183 184 188 189 187 187 186 185 187 187 188 189 189 192 192 190 191 187 188 188 179 179 210 204 192 192 193 188 182 177 172 171 167 156 150 147 144 140 141 156 163 164 160 143 123 116 126 120 96 62 32 346 4 108 227 282 175 243 312 301 193 162 151 212 180 221 274 287 286 3 136 198 211 223 235 238 241 246 248 250 252 253 255
203 194 191 186 181 179 181 184 184 182 181 180 179 178 178 178 178 180 182 182 183 181 176 181 184 182 205 211 192 189 189 185 182 180 175 172 169 160 153 148 139 138 136 137 148 154 155 141 125 127 116 101 100 91 72 34 310 314 43 215 242 196 172 239 289 257 133 114 239 249 234 254 271 277 274 262 251 247 243 251 254 252 253 252 249 247 248 248
194 189 187 183 179 177 178 179 177 177 175 173 171 170 170 169 171 173 173 176 170 160 165 170 164 175 241 213 188 190 191 185 180 177 173 171 167 159 156 144 137 138 132 132 139 139 140 118 105 104 29 23 78 98 103 198 199 203 197 204 262 240 173 209 255 243 116 96 254 274 272 258 264 275 274 272 271 259 250 255 259 260 258 258 254 249 249 246
189 182 180 178 176 175 176 175 173 173 170 166 165 164 163 160 160 166 171 172 164 149 167 177 164 153 233 193 185 187 187 183 177 173 172 171 166 162 155 142 143 139 127 127 123 132 132 85 76 91 156 222 201 143 163 197 171 162 174 160 170 202 260 253 252 274 102 110 250 249 254 260 263 271 274 276 275 261 252 253 253 255 257 256 255 252 251 248
183 174 173 173 173 174 173 171 171 169 166 165 163 158 154 151 138 152 176 177 173 158 41 180 177 170 95 173 180 177 174 175 175 173 173 172 167 161 150 144 146 129 113 149 154 166 116 89 136 189 195 208 214 180 174 178 139 128 121 106 147 159 293 281 268 309 22 113 252 245 251 265 265 266 269 274 277 268 251 247 244 248 251 251 252 253 253 253
170 167 168 169 171 172 171 170 169 168 167 167 165 158 158 162 146 161 178 182 188 179 58 174 183 192 113 171 180 170 160 165 177 177 174 173 167 158 154 149 133 115 231 150 125 79 85 104 214 218 203 201 210 180 145 104 90 94 102 76 20 140 223 253 255 299 358 68 269 284 289 274 263 260 265 269 275 266 247 238 239 243 245 248 251 255 259 263
157 161 163 166 169 170 171 171 170 170 169 169 167 158 164 176 175 181 174 179 200 198 202 176 185 198 173 169 178 169 154 150 175 182 175 171 169 165 165 147 118 169 197 113 99 48 60 198 240 232 206 156 118 118 107 90 85 80 96 90 12 277 211 299 325 311 12 124 271 336 334 283 272 258 257 256 251 256 254 245 246 248 247 250 253 258 264 267
151 157 161 166 168 170 171 171 171 173 172 170 167 154 158 177 183 182 172 152 197 205 218 200 190 198 184 165 173 174 165 156 174 183 177 173 172 169 162 146 137 163 137 125 133 102 110 244 247 229 183 113 73 76 89 75 74 82 99 109 254 275 141 276 303 303 281 191 273 337 323 283 283 276 258 254 247 256 262 257 256 256 253 256 259 262 265 268
146 154 162 167 169 171 172 173 175 174 174 174 170 155 148 172 179 175 175 139 159 201 214 209 197 202 198 179 176 177 172 172 181 182 179 176 170 163 167 162 144 146 166 161 142 145 204 257 239 175 135 114 106 73 88 90 34 343 125 136 209 256 132 191 290 322 326 342 349 2 324 286 297 323 288 275 263 264 271 268 262 259 256 257 259 262 263 265
142 146 153 161 167 173 173 177 179 177 178 179 176 160 137 162 170 166 174 144 12 195 206 205 202 209 205 195 184 174 159 166 179 182 182 178 168 155 172 175 154 165 200 171 133 159 233 272 154 140 104 95 110 107 132 133 99 323 246 176 182 158 135 120 16 20 21 341 324 32 350 287 306 313 280 294 313 288 285 280 264 262 257 251 253 257 260 262
146 144 143 148 157 168 170 174 181 183 183 185 184 170 141 149 156 163 162 59 333 203 173 189 194 199 199 192 174 157 144 177 176 179 180 178 174 159 157 176 154 181 193 164 134 177 223 305 100 132 123 91 96 112 202 140 109 310 254 191 155 125 113 92 58 47 52 270 282 69 105 271 302 296 273 277 282 279 286 280 264 263 258 251 251 255 259 264
157 153 148 146 149 158 159 165 180 184 184 190 192 181 161 146 148 158 137 37 290 187 144 175 183 185 191 179 165 152 145 172 150 171 176 174 181 172 166 183 141 182 184 127 150 233 141 100 73 96 103 94 107 148 211 138 115 220 241 162 126 107 116 116 91 94 216 259 316 15 129 242 286 282 275 269 269 278 283 277 267 260 257 254 254 257 263 265
172 167 161 151 149 155 155 163 173 174 180 192 193 186 174 151 147 146 118 48 225 152 141 175 168 174 179 170 168 154 135 152 139 173 176 171 179 172 178 199 165 189 177 119 179 256 124 154 167 135 106 118 168 219 204 136 118 236 223 140 125 119 126 114 97 102 338 5 313 312 113 238 267 273 288 288 279 281 265 260 261 260 261 261 261 263 263 251
179 175 172 161 156 158 154 158 162 165 178 188 187 184 174 157 147 121 94 149 168 119 131 163 158 168 166 160 166 145 129 148 137 166 173 173 176 166 167 193 170 183 176 118 168 241 66 170 183 142 135 185 199 272 211 143 139 208 159 91 68 73 81 77 96 104 30 5 259 234 167 239 266 262 272 284 277 269 262 260 262 268 273 274 272 260 232 201
183 180 175 171 175 172 158 154 159 163 171 177 180 178 167 157 137 109 149 209 164 93 100 150 161 165 156 147 154 142 127 120 117 140 161 173 168 159 142 143 108 129 81 48 100 248 350 96 118 111 146 178 148 60 34 120 135 124 91 61 42 26 36 43 60 80 48 285 256 221 189 198 274 273 241 219 235 237 247 291 291 296 303 286 254 192 171 172
185 184 180 180 185 181 170 161 158 159 163 167 171 168 159 139 94 134 191 210 122 108 103 140 166 157 157 153 152 156 108 73 136 138 140 155 156 147 133 137 66 74 53 35 57 324 351 53 45 87 118 126 107 58 29 60 104 103 80 78 62 347 13 18 359 51 145 254 269 258 204 175 246 264 239 250 259 222 177 357 325 341 74 114 133 142 154 215
188 188 187 187 185 181 180 173 160 157 161 160 161 161 148 103 200 204 197 146 147 181 160 162 179 162 162 153 148 158 119 113 166 152 141 146 165 185 169 177 153 101 186 196 147 333 333 274 258 70 116 146 112 72 25 12 38 79 96 102 97 325 10 356 303 166 226 245 266 288 209 194 243 255 257 273 275 245 171 22 351 157 131 135 141 163 273 279
196 191 189 190 188 183 182 178 166 161 158 157 157 153 121 115 208 215 203 195 197 176 151 150 158 156 152 147 160 163 121 144 181 168 156 142 165 206 234 224 177 139 178 184 144 135 286 304 309 88 287 202 151 129 139 285 129 133 135 134 140 145 143 251 257 262 265 260 276 307 274 250 278 284 247 249 264 281 326 341 289 224 186 188 220 273 290 290
197 191 181 185 188 187 186 182 173 168 160 157 153 135 125 186 215 190 181 217 168 93 116 130 134 145 156 163 177 166 120 153 175 150 137 138 155 205 236 246 205 123 110 154 161 168 197 287 220 175 201 187 181 182 166 152 162 182 154 137 158 162 165 205 208 214 249 273 289 296 246 205 215 278 245 232 268 290 304 305 295 289 276 268 276 278 283 285
201 195 187 185 185 188 192 191 182 172 165 159 147 131 179 201 225 168 173 205 158 65 79 113 120 138 176 198 183 178 156 176 180 145 147 168 176 192 194 209 203 163 134 166 208 167 180 251 233 207 176 170 181 194 157 124 118 225 137 119 184 191 159 159 189 184 178 294 287 248 235 213 201 261 262 256 270 280 287 288 288 286 283 280 276 272 272 278
206 198 195 199 195 192 196 200 195 179 170 160 143 193 200 199 199 171 179 183 159 125 105 108 108 133 181 191 199 203 178 110 167 158 180 195 204 197 193 207 198 187 172 171 187 154 163 267 279 322 159 177 178 174 152 144 187 198 150 182 212 177 133 131 258 263 96 256 268 207 253 281 316 279 266 256 258 274 287 281 271 270 269 265 264 265 272 286
199 199 199 203 203 203 201 203 205 189 179 168 166 200 203 183 181 157 145 162 147 137 125 131 147 146 169 179 194 199 178 107 165 175 190 201 239 200 196 227 199 192 194 179 195 195 153 232 302 92 197 255 220 122 80 50 133 135 182 214 198 88 92 116 231 344 40 258 268 219 246 275 305 272 296 17 353 304 279 266 259 260 257 252 254 259 272 292
184 193 202 206 208 215 207 204 212 193 175 168 203 212 178 127 245 64 49 38 125 129 129 159 167 147 167 181 190 185 169 162 181 190 182 192 241 198 180 205 199 196 199 184 194 236 144 193 295 51 188 280 1 122 131 358 84 138 182 191 127 121 244 124 158 208 201 251 274 267 258 258 231 227 265 344 316 311 292 286 280 258 251 249 251 259 272 298
179 183 204 208 208 217 214 207 210 187 157 157 209 218 187 220 273 68 72 33 53 115 154 181 166 148 172 174 166 171 177 179 178 185 181 184 233 206 179 187 200 198 194 179 182 230 129 182 259 314 214 306 15 160 192 270 348 44 89 129 123 146 175 170 170 173 164 205 257 276 282 253 232 188 148 215 256 277 273 277 271 245 243 249 255 266 294 345
175 166 200 204 202 210 212 207 207 180 133 173 208 214 163 196 252 242 221 39 40 65 165 201 152 154 181 177 162 168 180 179 174 183 197 187 210 241 193 186 181 190 188 182 185 189 122 191 227 306 330 329 190 205 181 172 181 172 160 193 208 111 116 184 194 142 144 167 218 264 274 262 238 158 159 200 231 242 236 236 254 245 242 248 279 15 9 352
161 149 200 187 190 202 200 196 203 172 114 221 222 254 266 216 231 241 244 201 125 49 92 166 140 143 174 177 175 175 167 165 176 186 209 198 199 247 207 190 176 164 172 181 195 193 182 188 174 178 252 203 222 232 197 186 185 178 182 193 190 167 133 169 240 250 132 170 186 184 267 273 244 154 171 185 199 212 190 141 75 60 70 75 54 23 359 347
160 144 184 173 180 194 191 182 180 164 160 214 177 158 206 260 235 217 215 184 188 114 66 129 161 160 159 176 185 171 158 165 185 187 200 209 196 202 216 198 182 169 160 175 201 192 162 115 130 187 218 213 239 266 233 211 216 209 197 185 175 165 144 158 215 242 161 221 213 141 256 271 244 129 151 179 202 216 190 171 66 66 71 67 40 11 357 348
166 158 159 170 182 185 184 187 184 178 190 182 159 155 177 201 237 187 178 174 179 178 169 179 193 178 154 83 162 154 155 175 191 189 198 209 200 222 277 208 185 168 154 172 197 175 148 115 136 228 302 327 320 333 358 6 323 242 234 158 139 181 178 160 181 187 168 216 214 153 244 264 290 75 16 262 255 250 229 194 93 82 66 44 16 351 339 331
170 173 163 177 185 182 182 200 192 195 202 155 159 180 188 198 210 199 186 178 173 151 155 195 199 178 184 88 99 137 160 177 192 193 188 188 194 323 15 167 178 166 147 179 181 173 182 178 137 142 321 334 341 344 346 349 1 215 232 189 177 185 176 153 171 169 207 220 200 182 238 252 264 50 25 5 275 269 41 58 57 39 6 346 336 331 325 318
162 184 196 200 195 189 192 207 167 190 199 180 186 189 181 196 212 207 205 184 178 167 156 193 157 133 143 87 75 14 1 117 152 176 137 151 248 349 25 49 137 141 121 154 163 168 176 186 158 159 196 218 215 204 219 243 176 212 233 201 191 183 174 181 198 194 230 229 205 193 239 253 259 58 47 24 27 20 16 9 340 327 328 327 328 331 326 319
164 191 208 209 207 207 215 231 205 172 181 192 208 190 183 194 209 205 206 201 192 189 181 176 139 125 133 123 119 237 314 60 88 106 103 89 282 324 16 29 65 98 97 102 135 152 145 206 191 183 205 211 199 205 203 164 153 199 216 198 193 193 188 183 173 201 223 230 223 223 234 256 264 250 219 314 326 331 320 310 305 307 315 322 322 317 312 310
184 205 191 170 199 222 226 226 216 204 175 186 189 176 188 195 185 194 203 207 200 190 183 147 154 160 178 176 172 198 201 107 78 130 146 167 251 314 359 20 47 68 68 75 106 123 107 228 212 196 222 216 173 190 189 156 176 202 207 200 198 197 189 187 204 219 218 212 238 237 222 244 262 255 216 264 285 283 267 279 287 295 306 308 306 305 303 304
204 259 214 187 181 197 212 215 205 204 222 199 189 175 182 192 192 186 198 209 202 188 187 206 191 189 192 189 191 196 176 157 188 209 164 156 212 340 353 353 31 39 12 20 40 96 125 223 229 175 234 242 174 180 78 124 192 205 198 202 205 204 198 201 217 225 213 204 241 243 203 220 257 265 178 203 259 270 269 281 289 292 293 294 295 296 297 299
217 259 241 213 219 201 192 194 180 190 219 221 210 204 187 195 200 190 178 185 202 197 196 209 206 200 200 190 185 200 193 185 219 221 179 167 190 165 179 288 352 31 34 48 14 53 134 210 198 107 270 274 236 213 131 127 204 266 231 217 205 211 215 216 227 235 231 234 252 259 245 237 256 273 239 234 263 277 280 284 288 288 288 290 292 292 291 292
211 231 242 244 261 245 198 178 160 179 211 215 224 228 210 206 204 193 176 174 185 192 196 211 214 198 198 196 190 209 213 202 219 224 179 168 202 185 188 209 146 42 34 62 0 0 126 205 68 81 306 280 259 238 218 199 205 234 254 251 236 230 228 228 236 243 245 249 254 261 269 265 261 273 280 271 269 277 284 282 279 282 286 289 291 290 291 293
210 212 231 286 283 239 212 179 159 169 197 203 214 216 219 223 203 185 189 192 191 180 186 208 213 183 191 200 197 213 215 205 217 226 196 189 199 203 204 199 168 150 93 129 138 36 118 193 44 81 212 263 255 234 235 235 230 242 248 244 237 234 234 232 229 225 229 238 249 257 261 264 264 254 269 274 272 266 276 280 279 281 283 287 291 295 297 299
213 212 221 257 304 227 216 184 168 181 199 206 213 210 214 226 196 166 193 203 199 198 197 200 198 177 190 200 204 215 215 205 207 208 189 185 184 178 173 158 157 163 165 161 153 156 158 156 155 145 193 255 247 192 183 182 188 240 243 238 234 231 230 234 234 229 224 221 233 244 244 257 272 262 255 273 276 260 267 276 279 280 284 294 301 301 300 301